Regional Weather Roundup
Issued by NWS

Home | Current Version | Previous Version | Text Only | Print | Product List | Glossary On
Versions: 1 2 3 4 5 6 7 8 9 10 11 12 13 14 15 16 17 18 19 20 21 22 23 24 25 26 27 28 29 30 31 32 33 34 35 36 37 38 39 40 41 42 43 44 45 46 47 48 49 50
000
ASUS43 KLMK 240110
RWRKY
KENTUCKY REGIONAL WEATHER ROUNDUP
NATIONAL WEATHER SERVICE LOUISVILLE KY
900 PM EDT TUE SEP 23 2014

NOTE "FAIR" INDICATES FEW OR NO CLOUDS BELOW 12,000 FEET
WITH NO SIGNIFICANT WEATHER AND/OR OBSTRUCTIONS TO VISIBILITY.

KYZ001>023-026-027-061>063-070>075-240200-
WESTERN AND SOUTH CENTRAL KENTUCKY

CITY           SKY/WX    TMP DP  RH WIND       PRES   REMARKS
PADUCAH        CLEAR     61  50  67 CALM      30.20S
HENDERSON      CLEAR     55  46  71 NE6       30.24R
OWENSBORO      CLEAR     66  49  54 NE5       30.24R
HOPKINSVILLE   CLEAR     62  45  53 NE7       30.22R
BOWLING GREEN  CLEAR     61  46  57 CALM      30.23R
GLASGOW        CLEAR     56  48  74 CALM      30.24R
$$

KYZ024-025-028>034-038-045-046-053-240200-
NORTH CENTRAL KENTUCKY

CITY           SKY/WX    TMP DP  RH WIND       PRES   REMARKS
LOUISVILLE/SDF PTCLDY    67  46  47 E7        30.26R
LOUISVILLE/LOU CLEAR     66  47  50 CALM      30.27R
FORT KNOX      CLEAR     61  48  62 NE5       30.25R
$$

KYZ035>037-039>044-047>052-055>060-089>105-240200-
NORTHEAST KENTUCKY

CITY           SKY/WX    TMP DP  RH WIND       PRES   REMARKS
LEXINGTON      CLEAR     63  46  54 E7        30.28S
COVINGTON      CLEAR     63  44  50 E3        30.29R
FRANKFORT      CLEAR     56  47  71 CALM      30.26S
$$

KYZ054-064>069-076>088-106>120-240200-
SOUTHEAST KENTUCKY

CITY           SKY/WX    TMP DP  RH WIND       PRES   REMARKS
JACKSON        CLEAR     59  48  67 CALM      30.28S
LONDON         CLEAR     61  50  67 N3        30.27S
SOMERSET       CLEAR     59  48  67 NE3       30.27S
MIDDLESBORO    CLEAR     59  55  85 CALM      30.27R
MONTICELLO     CLEAR     54  51  89 CALM      30.27R
$$



USA.gov is the U.S. government's official web portal to all federal, state and local government web resources and services.